Location: Newark
(34.9500°N, 139.9667°E)
Time: 01:29:44
(UTC+00:00)

deb Explorer IX - Pass Details

Date: 10 December 2019
Orbit: 548 x 1101 km, 38.8° (Epoch: 23 January)

Event Time Altitude Azimuth Distance (km) Brightness Sun altitude
Rises 11:25:23 0° 288° (WNW) 3,713 ? -47.7°
Reaches altitude 10° 11:27:58 10° 288° (WNW) 2,822 ? -48.2°
Enters shadow 11:29:11 16° 288° (WNW) 2,412 ? -48.4°
